EW4589 Weather Reports


Display with metric or nautical units.
time (UTC)temp
F
wind
direction
speed
MPH
gust
MPH
rain 1hr
in
rain 24hr
in
rain mn
in
humidity
%
barometer
mb
20190527110041 67 112 0.0 0.0 0.00 0.00 0.00 55 1014.9
20190527104528 67 112 0.0 0.0 0.00 0.00 0.00 56 1014.7
20190527103021 67 112 0.0 0.0 0.00 0.00 0.00 56 1014.4
20190527101529 67 112 0.0 0.0 0.00 0.00 0.00 58 1014.4
20190527100016 67 112 0.0 0.0 0.00 0.00 0.00 59 1014.3
20190527094512 68 112 0.0 0.0 0.00 0.00 0.00 60 1014.2
20190527093011 68 112 0.0 0.0 0.00 0.00 0.00 61 1014.3
20190527091503 68 112 0.0 0.0 0.00 0.00 0.00 62 1014.2
20190527090002 69 112 0.0 0.0 0.00 0.00 0.00 62 1014.1
20190527084501 69 112 0.0 0.0 0.00 0.00 0.00 64 1014.2
20190527083201 69 112 0.0 0.0 0.00 0.00 0.00 65 1014.1
20190527081650 69 112 0.0 0.0 0.00 0.00 0.00 65 1014.0
20190527080140 69 112 0.0 0.0 0.00 0.00 0.00 63 1014.0
20190527074715 69 112 0.0 0.0 0.00 0.00 0.00 60 1014.0
20190527073154 69 112 0.0 0.0 0.00 0.00 0.00 60 1014.1
20190527071656 69 112 0.0 0.0 0.00 0.00 0.00 59 1014.1
20190527070219 69 112 0.0 0.0 0.00 0.00 0.00 61 1014.3
20190527064629 69 112 0.0 0.0 0.00 0.16 0.00 62 1014.2
20190527063108 69 112 0.0 0.0 0.00 0.16 0.00 64 1014.2
20190527061601 69 112 0.0 0.0 0.00 0.16 0.00 64 1014.3
20190527060147 69 112 0.0 0.0 0.00 0.16 0.00 64 1014.1
20190527054618 70 112 0.0 0.0 0.00 0.19 0.00 66 1014.3
20190527053212 70 112 0.0 0.0 0.00 0.19 0.00 67 1014.2
20190527051700 70 112 0.0 0.0 0.00 0.19 0.00 67 1014.3
20190527050131 70 112 0.0 0.0 0.00 0.19 0.00 69 1014.4
20190527044625 71 112 0.0 0.0 0.00 0.19 0.00 70 1014.5
20190527043204 71 112 0.0 0.0 0.00 0.19 0.00 71 1014.5
20190527041607 71 112 0.0 0.0 0.00 0.19 0.00 71 1014.6
20190527040121 71 112 0.0 0.0 0.00 0.19 0.00 72 1014.7
20190527034610 72 112 0.0 0.0 0.00 0.19 0.19 73 1014.7
20190527033055 72 112 0.0 0.0 0.00 0.19 0.19 74 1014.8
20190527031627 73 112 0.0 0.0 0.00 0.19 0.19 75 1014.9
20190527030041 73 112 0.0 0.0 0.00 0.19 0.19 76 1014.8
20190527024539 73 112 0.0 0.0 0.00 0.19 0.19 77 1014.9
20190527023030 74 112 0.0 0.0 0.00 0.19 0.19 77 1014.9
20190527021533 74 112 0.0 0.0 0.00 0.19 0.19 77 1014.8
20190527020049 75 112 0.0 0.0 0.00 0.19 0.19 77 1014.8
20190527014556 75 112 0.0 0.0 0.00 0.19 0.19 77 1014.7
20190527013049 76 112 0.0 0.0 0.00 0.19 0.19 77 1014.5
20190527011556 77 112 0.0 0.0 0.00 0.19 0.19 76 1014.7
20190527010048 78 112 0.0 0.0 0.00 0.19 0.19 75 1014.7
20190527004548 79 112 0.0 0.0 0.00 0.19 0.19 74 1014.8
20190527003035 80 112 0.0 0.0 0.00 0.19 0.19 71 1014.9
20190527001539 81 112 0.0 0.0 0.00 0.19 0.19 71 1014.8
20190527000033 83 112 0.0 0.0 0.00 0.19 0.19 67 1014.8
20190526234526 84 112 0.0 0.0 0.00 0.19 0.19 66 1014.7
20190526233035 85 111 0.0 0.0 0.00 0.19 0.19 65 1014.7
20190526231604 87 112 0.0 0.0 0.00 0.19 0.19 61 1014.6
20190526230101 88 112 0.0 0.0 0.00 0.19 0.19 60 1014.6
20190526224546 91 197 0.0 0.0 0.00 0.19 0.19 56 1014.7
20190526223041 91 220 0.0 1.0 0.00 0.19 0.19 45 1014.5
20190526221527 92 222 0.0 1.0 0.00 0.19 0.19 43 1014.7
20190526220031 92 214 0.0 3.0 0.00 0.19 0.19 42 1014.7
20190526214535 93 162 0.0 1.0 0.00 0.19 0.19 42 1014.8
20190526213016 94 164 0.0 1.0 0.00 0.19 0.19 40 1015.1
20190526211509 95 176 0.0 2.0 0.00 0.19 0.19 39 1015.1
20190526210024 96 110 0.0 2.0 0.00 0.19 0.19 40 1015.2
20190526204512 95 134 0.0 4.0 0.00 0.19 0.19 38 1015.4
20190526203003 96 110 0.0 1.0 0.00 0.19 0.19 38 1015.6
20190526201502 95 54 0.0 3.0 0.00 0.19 0.19 40 1015.7
20190526200241 96 330 0.0 2.0 0.00 0.19 0.19 40 1015.9
20190526194639 96 95 0.0 1.0 0.00 0.19 0.19 39 1016.1
20190526193130 95 292 0.0 5.0 0.00 0.19 0.19 39 1016.3
20190526191659 95 222 0.0 2.0 0.00 0.19 0.19 39 1016.5
20190526190141 94 220 0.0 2.0 0.00 0.19 0.19 44 1016.5
20190526184750 94 216 0.0 1.0 0.00 0.19 0.19 43 1016.6
20190526183131 95 274 0.0 2.0 0.00 0.19 0.19 42 1016.7
20190526181709 96 102 0.0 2.0 0.00 0.19 0.19 44 1016.7
20190526180150 95 199 0.0 1.0 0.00 0.19 0.19 44 1016.9
20190526174638 94 108 0.0 1.0 0.00 0.19 0.19 43 1017.0
20190526173230 94 101 0.0 1.0 0.00 0.19 0.19 45 1017.0
20190526171612 94 67 0.0 1.0 0.00 0.19 0.19 47 1017.2
20190526170058 93 222 0.0 1.0 0.00 0.19 0.19 48 1017.4
20190526164604 93 158 0.0 1.0 0.00 0.19 0.19 51 1017.6
20190526163040 92 96 0.0 3.0 0.00 0.19 0.19 50 1017.8
20190526161615 92 237 0.0 2.0 0.00 0.19 0.19 53 1018.0
20190526160100 92 139 0.0 1.0 0.00 0.19 0.19 56 1018.3
20190526154633 91 119 0.0 2.0 0.00 0.19 0.19 56 1018.4
20190526153112 90 219 0.0 1.0 0.00 0.19 0.19 61 1018.5
20190526151636 90 85 0.0 1.0 0.00 0.19 0.19 65 1018.6
20190526150036 88 210 0.0 1.0 0.00 0.19 0.19 68 1018.7
20190526144540 88 37 0.0 1.0 0.00 0.19 0.19 71 1018.7
20190526143018 86 209 0.0 0.0 0.00 0.19 0.19 74 1018.8
20190526141508 84 226 0.0 0.0 0.00 0.19 0.19 77 1018.8
20190526140008 82 101 0.0 1.0 0.00 0.19 0.19 77 1018.9
20190526134722 81 99 0.0 1.0 0.00 0.19 0.19 77 1018.9
20190526133211 79 212 0.0 0.0 0.00 0.19 0.19 68 1018.9
20190526131617 78 214 0.0 1.0 0.00 0.19 0.19 64 1019.0
20190526130144 76 210 0.0 1.0 0.00 0.19 0.19 53 1019.1
20190526124704 76 145 0.0 1.0 0.00 0.19 0.19 48 1019.0
20190526123121 75 214 0.0 1.0 0.00 0.19 0.19 49 1018.9
20190526121705 74 211 0.0 1.0 0.00 0.19 0.19 51 1018.8
20190526120138 74 271 0.0 0.0 0.00 0.19 0.19 51 1018.8
20190526114556 73 271 0.0 0.0 0.00 0.19 0.19 50 1018.9
20190526113134 73 271 0.0 0.0 0.00 0.19 0.19 49 1019.0
20190526111643 72 271 0.0 0.0 0.00 0.19 0.19 49 1019.0